Regional Weather Roundup
Issued by NWS Cleveland, OH

Home | Current Version | Previous Version | Text Only | Print | Product List | Glossary On
Versions: 1 2 3 4 5 6 7 8 9 10 11 12 13 14 15 16 17 18 19 20 21 22 23 24 25 26 27 28 29 30 31 32 33 34 35 36 37 38 39 40 41 42 43 44 45 46 47 48 49 50
000
ASUS41 KCLE 230410
RWRCLE
OHIO REGIONAL WEATHER ROUNDUP
NATIONAL WEATHER SERVICE WILMINGTON, OH
1200 AM EDT TUE SEP 23 2014

NOTE: "FAIR" INDICATES FEW OR NO CLOUDS BELOW 12,000 FEET WITH NO
SIGNIFICANT WEATHER AND/OR OBSTRUCTIONS TO VISIBILITY.

OHZ001>008-015>018-024>027-034-035-043-044-230500-
   NORTHWEST OHIO

CITY           SKY/WX    TMP DP  RH WIND       PRES   REMARKS
DEFIANCE       CLEAR    N/A N/A N/A CALM      30.28S
FINDLAY        CLEAR     49  43  80 CALM      30.27R
TOLEDO EXPRESS CLEAR     46  44  93 CALM      30.27R
TOLEDO METCALF CLEAR     49  43  80 CALM      30.28R
LIMA           CLEAR     47  43  86 CALM      30.28R
$$

OHZ009>014-019>023-028>033-038-089-230500-
   NORTHEAST OHIO

CITY           SKY/WX    TMP DP  RH WIND       PRES   REMARKS
CLE-HOPKINS    CLEAR     46  42  86 CALM      30.29S
CLE-LAKEFRONT  CLEAR     50  43  77 SE8       30.26S
CUY CO. ARPT   NOT AVBL
LORAIN-ELYRIA  CLEAR     48  42  80 S3        30.28S
ASHTABULA      PTCLDY    45  42  89 CALM      30.28R
AKRON-CANTON   CLEAR     47  41  80 SE3       30.28R
WOOSTER        FOG       40  38  93 CALM      30.29S VSB 1
MANSFIELD      CLEAR     45  43  93 S3        30.28S
YOUNGSTOWN     CLEAR     42  40  92 CALM      30.28R
$$

OHZ042-051>053-060>062-070>072-077>081-230500-
  SOUTHWEST OHIO

CITY           SKY/WX    TMP DP  RH WIND       PRES   REMARKS
CINC-COVINGTON CLEAR     53  43  68 N7        30.28R
CINC-LUNKEN    CLEAR     47  46  97 NE5       30.30R
HAMILTON       CLEAR     44  43  96 CALM      30.30R
DAYTON         CLEAR     50  41  71 CALM      30.29S
WRIGHT-PAT AFB CLEAR     47  43  85 CALM      30.28S
DAYTON GENERAL CLEAR     48  43  82 CALM      30.28R
WILMINGTON     CLEAR     42  40  92 CALM      30.28R
$$

OHZ036-037-039>041-045>050-054>059-063>069-073>076-082>088-230500-
  CENTRAL AND SOUTHEAST OHIO

CITY           SKY/WX    TMP DP  RH WIND       PRES   REMARKS
COLUMBUS       CLEAR     51  42  71 CALM      30.27R
OSU AIRPORT    CLEAR     48  42  80 CALM      30.28R
BOLTON FIELD   CLEAR     44  42  94 CALM      30.28R
RICKENBACK AFB CLEAR     46  41  83 CALM      30.28R
NEWARK         CLEAR     42  39  89 CALM      30.29R
MARION         CLEAR     44  39  82 SE3       30.28R
LANCASTER      CLEAR     42  39  89 CALM      30.29R
ZANESVILLE     CLEAR     44  41  89 CALM      30.29R
NEW PHILLY     CLEAR     42  41  96 CALM      30.30R
$$


USA.gov is the U.S. government's official web portal to all federal, state and local government web resources and services.